Location: St. Louis
(38.6270°N, 90.1994°W)
Time: 04:48:41
(UTC-05:00)

RS-15 - Pass Details

Date: 01 February 2022
Orbit: 1881 x 2163 km, 64.8° (Epoch: 20 May)

Event Time Altitude Azimuth Distance (km) Brightness Sun altitude
Rises 00:41:23 0° 327° (NNW) 5,664 10.7 -67.7°
Reaches altitude 10° 00:45:04 10° 333° (NNW) 4,675 10.1 -67.4°
Enters shadow 00:46:10 13° 335° (NNW) 4,392 9.9 -67.4°
